Tracking 27401 objects as of 4-Jun-2023
HD Live streaming from Space Station
objects crossing your sky now

DMSP 5D-2 F13 DEB

Track DMSP 5D-2 F13 DEB now!
10-day predictions


NORAD ID: 40605
Int'l Code: 1995-015FC
Perigee: 775.6 km
Apogee: 818.5 km
Inclination: 98.7 °
Period: 100.7 minutes
Semi major axis: 7168 km
RCS: Unknown
Launch date: March 24, 1995
Source: United States (US)
Launch site: AIR FORCE WESTERN TEST RANGE (AFWTR)

Note: This is SATELLITE DEBRIS
Your satellite tracking list
Your tracking list is empty




NASA's NSSDC Master Catalog

Two Line Element Set (TLE):
1 40605U 95015FC  23152.04777059  .00005638  00000-0  21669-2 0  9995
2 40605  98.6646 184.5437 0029908 335.7484  24.2289 14.30554883421948
Source of the keplerian elements: AFSPC